Year,Month,Day,Hour,Minute,Value (Times are PST for temperature in C)
2016,07,10,00,00,13.90
2016,07,10,00,01,13.90
2016,07,10,00,02,13.90
2016,07,10,00,03,13.90
2016,07,10,00,04,13.90
2016,07,10,00,05,13.90
2016,07,10,00,06,13.90
2016,07,10,00,07,13.90
2016,07,10,00,08,13.90
2016,07,10,00,09,13.90
2016,07,10,00,10,13.90
2016,07,10,00,11,13.90
2016,07,10,00,12,14.00
2016,07,10,00,13,14.00
2016,07,10,00,14,14.00
2016,07,10,00,15,14.00
2016,07,10,00,16,14.00
2016,07,10,00,17,14.00
2016,07,10,00,18,14.00
2016,07,10,00,19,14.00
2016,07,10,00,20,14.00
2016,07,10,00,21,14.00
2016,07,10,00,22,14.00
2016,07,10,00,23,14.10
2016,07,10,00,24,14.10
2016,07,10,00,25,14.10
2016,07,10,00,26,14.10
2016,07,10,00,27,14.10
2016,07,10,00,28,14.10
2016,07,10,00,29,14.10
2016,07,10,00,30,14.10
2016,07,10,00,31,14.10
2016,07,10,00,32,14.10
2016,07,10,00,33,14.10
2016,07,10,00,34,14.10
2016,07,10,00,35,14.10
2016,07,10,00,36,14.10
2016,07,10,00,37,14.10
2016,07,10,00,38,14.10
2016,07,10,00,39,14.10
2016,07,10,00,40,14.10
2016,07,10,00,41,14.10
2016,07,10,00,42,14.10
2016,07,10,00,43,14.10
2016,07,10,00,44,14.10
2016,07,10,00,45,14.10
2016,07,10,00,46,14.10
2016,07,10,00,47,14.10
2016,07,10,00,48,14.00
2016,07,10,00,49,14.00
2016,07,10,00,50,14.00
2016,07,10,00,51,14.00
2016,07,10,00,52,14.00
2016,07,10,00,53,14.00
2016,07,10,00,54,14.00
2016,07,10,00,55,14.00
2016,07,10,00,56,14.00
2016,07,10,00,57,14.00
2016,07,10,00,58,14.00
2016,07,10,00,59,14.00
2016,07,10,01,00,14.00
2016,07,10,01,01,14.00
2016,07,10,01,02,14.00
2016,07,10,01,03,14.00
2016,07,10,01,04,14.00
2016,07,10,01,05,14.00
2016,07,10,01,06,14.00
2016,07,10,01,07,14.00
2016,07,10,01,08,14.00
2016,07,10,01,09,14.00
2016,07,10,01,10,14.00
2016,07,10,01,11,14.00
2016,07,10,01,12,14.00
2016,07,10,01,13,14.00
2016,07,10,01,14,14.00
2016,07,10,01,15,14.00
2016,07,10,01,16,14.00
2016,07,10,01,17,14.00
2016,07,10,01,18,14.00
2016,07,10,01,19,14.00
2016,07,10,01,20,14.00
2016,07,10,01,21,14.00
2016,07,10,01,22,14.00
2016,07,10,01,23,14.00
2016,07,10,01,24,13.90
2016,07,10,01,25,13.90
2016,07,10,01,26,13.90
2016,07,10,01,27,13.90
2016,07,10,01,28,13.90
2016,07,10,01,29,13.90
2016,07,10,01,30,13.90
2016,07,10,01,31,13.80
2016,07,10,01,32,13.80
2016,07,10,01,33,13.80
2016,07,10,01,34,13.80
2016,07,10,01,35,13.80
2016,07,10,01,36,13.80
2016,07,10,01,37,13.80
2016,07,10,01,38,13.70
2016,07,10,01,39,13.70
2016,07,10,01,40,13.70
2016,07,10,01,41,13.70
2016,07,10,01,42,13.70
2016,07,10,01,43,13.70
2016,07,10,01,44,13.70
2016,07,10,01,45,13.70
2016,07,10,01,46,13.70
2016,07,10,01,47,13.70
2016,07,10,01,48,13.70
2016,07,10,01,49,13.70
2016,07,10,01,50,13.70
2016,07,10,01,51,13.70
2016,07,10,01,52,13.70
2016,07,10,01,53,13.70
2016,07,10,01,54,13.60
2016,07,10,01,55,13.60
2016,07,10,01,56,13.60
2016,07,10,01,57,13.60
2016,07,10,01,58,13.60
2016,07,10,01,59,13.60
2016,07,10,02,00,13.60
2016,07,10,02,01,13.60
2016,07,10,02,02,13.60
2016,07,10,02,03,13.60
2016,07,10,02,04,13.60
2016,07,10,02,05,13.60
2016,07,10,02,06,13.60
2016,07,10,02,07,13.60
2016,07,10,02,08,13.60
2016,07,10,02,09,13.60
2016,07,10,02,10,13.60
2016,07,10,02,11,13.50
2016,07,10,02,12,13.50
2016,07,10,02,13,13.50
2016,07,10,02,14,13.50
2016,07,10,02,15,13.50
2016,07,10,02,16,13.50
2016,07,10,02,17,13.40
2016,07,10,02,18,13.40
2016,07,10,02,19,13.30
2016,07,10,02,20,13.20
2016,07,10,02,21,13.10
2016,07,10,02,22,13.00
2016,07,10,02,23,12.90
2016,07,10,02,24,12.90
2016,07,10,02,25,12.80
2016,07,10,02,26,12.80
2016,07,10,02,27,12.80
2016,07,10,02,28,12.80
2016,07,10,02,29,12.80
2016,07,10,02,30,12.80
2016,07,10,02,31,12.80
2016,07,10,02,32,12.80
2016,07,10,02,33,12.90
2016,07,10,02,34,12.90
2016,07,10,02,35,13.00
2016,07,10,02,36,13.00
2016,07,10,02,37,13.00
2016,07,10,02,38,13.10
2016,07,10,02,39,13.10
2016,07,10,02,40,13.10
2016,07,10,02,41,13.10
2016,07,10,02,42,13.10
2016,07,10,02,43,13.10
2016,07,10,02,44,13.10
2016,07,10,02,45,13.10
2016,07,10,02,46,13.10
2016,07,10,02,47,13.10
2016,07,10,02,48,13.10
2016,07,10,02,49,13.10
2016,07,10,02,50,13.00
2016,07,10,02,51,13.00
2016,07,10,02,52,13.00
2016,07,10,02,53,13.00
2016,07,10,02,54,13.00
2016,07,10,02,55,13.00
2016,07,10,02,56,13.00
2016,07,10,02,57,13.00
2016,07,10,02,58,12.90
2016,07,10,02,59,12.90
2016,07,10,03,00,12.90
2016,07,10,03,01,12.90
2016,07,10,03,02,12.90
2016,07,10,03,03,12.90
2016,07,10,03,04,12.90
2016,07,10,03,05,12.90
2016,07,10,03,06,12.90
2016,07,10,03,07,12.90
2016,07,10,03,08,12.90
2016,07,10,03,09,12.90
2016,07,10,03,10,12.90
2016,07,10,03,11,12.90
2016,07,10,03,12,12.90
2016,07,10,03,13,12.80
2016,07,10,03,14,12.80
2016,07,10,03,15,12.80
2016,07,10,03,16,12.80
2016,07,10,03,17,12.80
2016,07,10,03,18,12.80
2016,07,10,03,19,12.80
2016,07,10,03,20,12.80
2016,07,10,03,21,12.80
2016,07,10,03,22,12.80
2016,07,10,03,23,12.80
2016,07,10,03,24,12.80
2016,07,10,03,25,12.80
2016,07,10,03,26,12.80
2016,07,10,03,27,12.80
2016,07,10,03,28,12.80
2016,07,10,03,29,12.80
2016,07,10,03,30,12.80
2016,07,10,03,31,12.80
2016,07,10,03,32,12.80
2016,07,10,03,33,12.80
2016,07,10,03,34,12.80
2016,07,10,03,35,12.80
2016,07,10,03,36,12.80
2016,07,10,03,37,12.80
2016,07,10,03,38,12.80
2016,07,10,03,39,12.70
2016,07,10,03,40,12.70
2016,07,10,03,41,12.70
2016,07,10,03,42,12.70
2016,07,10,03,43,12.70
2016,07,10,03,44,12.70
2016,07,10,03,45,12.70
2016,07,10,03,46,12.70
2016,07,10,03,47,12.70
2016,07,10,03,48,12.70
2016,07,10,03,49,12.70
2016,07,10,03,50,12.70
2016,07,10,03,51,12.70
2016,07,10,03,52,12.70
2016,07,10,03,53,12.70
2016,07,10,03,54,12.70
2016,07,10,03,55,12.60
2016,07,10,03,56,12.60
2016,07,10,03,57,12.60
2016,07,10,03,58,12.60
2016,07,10,03,59,12.60
2016,07,10,04,00,12.60
2016,07,10,04,01,12.60
2016,07,10,04,02,12.60
2016,07,10,04,03,12.60
2016,07,10,04,04,12.60
2016,07,10,04,05,12.60
2016,07,10,04,06,12.60
2016,07,10,04,07,12.60
2016,07,10,04,08,12.60
2016,07,10,04,09,12.60
2016,07,10,04,10,12.60
2016,07,10,04,11,12.60
2016,07,10,04,12,12.60
2016,07,10,04,13,12.60
2016,07,10,04,14,12.60
2016,07,10,04,15,12.60
2016,07,10,04,16,12.60
2016,07,10,04,17,12.60
2016,07,10,04,18,12.60
2016,07,10,04,19,12.60
2016,07,10,04,20,12.60
2016,07,10,04,21,12.60
2016,07,10,04,22,12.50
2016,07,10,04,23,12.50
2016,07,10,04,24,12.50
2016,07,10,04,25,12.50
2016,07,10,04,26,12.50
2016,07,10,04,27,12.50
2016,07,10,04,28,12.50
2016,07,10,04,29,12.50
2016,07,10,04,30,12.50
2016,07,10,04,31,12.50
2016,07,10,04,32,12.50
2016,07,10,04,33,12.50
2016,07,10,04,34,12.50
2016,07,10,04,35,12.50
2016,07,10,04,36,12.50
2016,07,10,04,37,12.50
2016,07,10,04,38,12.50
2016,07,10,04,39,12.40
2016,07,10,04,40,12.40
2016,07,10,04,41,12.40
2016,07,10,04,42,12.40
2016,07,10,04,43,12.40
2016,07,10,04,44,12.40
2016,07,10,04,45,12.40
2016,07,10,04,46,12.40
2016,07,10,04,47,12.40
2016,07,10,04,48,12.40
2016,07,10,04,49,12.40
2016,07,10,04,50,12.40
2016,07,10,04,51,12.40
2016,07,10,04,52,12.40
2016,07,10,04,53,12.40
2016,07,10,04,54,12.40
2016,07,10,04,55,12.40
2016,07,10,04,56,12.40
2016,07,10,04,57,12.40
2016,07,10,04,58,12.40
2016,07,10,04,59,12.40
2016,07,10,05,00,12.40
2016,07,10,05,01,12.40
2016,07,10,05,02,12.30
2016,07,10,05,03,12.40
2016,07,10,05,04,12.30
2016,07,10,05,05,12.40
2016,07,10,05,06,12.40
2016,07,10,05,07,12.40
2016,07,10,05,08,12.40
2016,07,10,05,09,12.40
2016,07,10,05,10,12.30
2016,07,10,05,11,12.30
2016,07,10,05,12,12.30
2016,07,10,05,13,12.30
2016,07,10,05,14,12.30
2016,07,10,05,15,12.30
2016,07,10,05,16,12.30
2016,07,10,05,17,12.30
2016,07,10,05,18,12.40
2016,07,10,05,19,12.40
2016,07,10,05,20,12.40
2016,07,10,05,21,12.40
2016,07,10,05,22,12.40
2016,07,10,05,23,12.40
2016,07,10,05,24,12.40
2016,07,10,05,25,12.40
2016,07,10,05,26,12.40
2016,07,10,05,27,12.40
2016,07,10,05,28,12.40
2016,07,10,05,29,12.50
2016,07,10,05,30,12.50
2016,07,10,05,31,12.50
2016,07,10,05,32,12.50
2016,07,10,05,33,12.50
2016,07,10,05,34,12.50
2016,07,10,05,35,12.50
2016,07,10,05,36,12.50
2016,07,10,05,37,12.50
2016,07,10,05,38,12.50
2016,07,10,05,39,12.50
2016,07,10,05,40,12.60
2016,07,10,05,41,12.60
2016,07,10,05,42,12.60
2016,07,10,05,43,12.60
2016,07,10,05,44,12.60
2016,07,10,05,45,12.60
2016,07,10,05,46,12.60
2016,07,10,05,47,12.60
2016,07,10,05,48,12.60
2016,07,10,05,49,12.60
2016,07,10,05,50,12.50
2016,07,10,05,51,12.50
2016,07,10,05,52,12.40
2016,07,10,05,53,12.30
2016,07,10,05,54,12.30
2016,07,10,05,55,12.30
2016,07,10,05,56,12.30
2016,07,10,05,57,12.20
2016,07,10,05,58,12.20
2016,07,10,05,59,12.20
2016,07,10,06,00,12.10
2016,07,10,06,01,12.10
2016,07,10,06,02,12.10
2016,07,10,06,03,12.10
2016,07,10,06,04,12.00
2016,07,10,06,05,12.00
2016,07,10,06,06,12.00
2016,07,10,06,07,12.00
2016,07,10,06,08,12.00
2016,07,10,06,09,12.00
2016,07,10,06,10,11.90
2016,07,10,06,11,12.00
2016,07,10,06,12,12.00
2016,07,10,06,13,12.00
2016,07,10,06,14,12.00
2016,07,10,06,15,12.10
2016,07,10,06,16,12.10
2016,07,10,06,17,12.10
2016,07,10,06,18,12.10
2016,07,10,06,19,12.20
2016,07,10,06,20,12.20
2016,07,10,06,21,12.20
2016,07,10,06,22,12.20
2016,07,10,06,23,12.20
2016,07,10,06,24,12.20
2016,07,10,06,25,12.30
2016,07,10,06,26,12.20
2016,07,10,06,27,12.20
2016,07,10,06,28,12.20
2016,07,10,06,29,12.20
2016,07,10,06,30,12.20
2016,07,10,06,31,12.20
2016,07,10,06,32,12.20
2016,07,10,06,33,12.20
2016,07,10,06,34,12.20
2016,07,10,06,35,12.20
2016,07,10,06,36,12.30
2016,07,10,06,37,12.30
2016,07,10,06,38,12.30
2016,07,10,06,39,12.30
2016,07,10,06,40,12.30
2016,07,10,06,41,12.30
2016,07,10,06,42,12.30
2016,07,10,06,43,12.30
2016,07,10,06,44,12.30
2016,07,10,06,45,12.30
2016,07,10,06,46,12.30
2016,07,10,06,47,12.40
2016,07,10,06,48,12.40
2016,07,10,06,49,12.50
2016,07,10,06,50,12.50
2016,07,10,06,51,12.50
2016,07,10,06,52,12.60
2016,07,10,06,53,12.60
2016,07,10,06,54,12.60
2016,07,10,06,55,12.70
2016,07,10,06,56,12.70
2016,07,10,06,57,12.70
2016,07,10,06,58,12.80
2016,07,10,06,59,12.80
2016,07,10,07,00,12.80
2016,07,10,07,01,12.90
2016,07,10,07,02,12.90
2016,07,10,07,03,13.00
2016,07,10,07,04,13.10
2016,07,10,07,05,13.10
2016,07,10,07,06,13.20
2016,07,10,07,07,13.20
2016,07,10,07,08,13.30
2016,07,10,07,09,13.30
2016,07,10,07,10,13.30
2016,07,10,07,11,13.30
2016,07,10,07,12,13.40
2016,07,10,07,13,13.40
2016,07,10,07,14,13.50
2016,07,10,07,15,13.50
2016,07,10,07,16,13.60
2016,07,10,07,17,13.60
2016,07,10,07,18,13.60
2016,07,10,07,19,13.60
2016,07,10,07,20,13.70
2016,07,10,07,21,13.70
2016,07,10,07,22,13.70
2016,07,10,07,23,13.70
2016,07,10,07,24,13.80
2016,07,10,07,25,13.80
2016,07,10,07,26,13.90
2016,07,10,07,27,13.90
2016,07,10,07,28,14.00
2016,07,10,07,29,14.10
2016,07,10,07,30,14.10
2016,07,10,07,31,14.20
2016,07,10,07,32,14.20
2016,07,10,07,33,14.20
2016,07,10,07,34,14.20
2016,07,10,07,35,14.20
2016,07,10,07,36,14.20
2016,07,10,07,37,14.20
2016,07,10,07,38,14.20
2016,07,10,07,39,14.20
2016,07,10,07,40,14.10
2016,07,10,07,41,14.00
2016,07,10,07,42,14.00
2016,07,10,07,43,13.90
2016,07,10,07,44,13.90
2016,07,10,07,45,13.80
2016,07,10,07,46,13.80
2016,07,10,07,47,13.70
2016,07,10,07,48,13.70
2016,07,10,07,49,13.70
2016,07,10,07,50,13.70
2016,07,10,07,51,13.60
2016,07,10,07,52,13.50
2016,07,10,07,53,13.50
2016,07,10,07,54,13.40
2016,07,10,07,55,13.40
2016,07,10,07,56,13.40
2016,07,10,07,57,13.40
2016,07,10,07,58,13.40
2016,07,10,07,59,13.40
2016,07,10,08,00,13.40
2016,07,10,08,01,13.40
2016,07,10,08,02,13.40
2016,07,10,08,03,13.40
2016,07,10,08,04,13.50
2016,07,10,08,05,13.50
2016,07,10,08,06,13.50
2016,07,10,08,07,13.50
2016,07,10,08,08,13.50
2016,07,10,08,09,13.50
2016,07,10,08,10,13.50
2016,07,10,08,11,13.60
2016,07,10,08,12,13.60
2016,07,10,08,13,13.60
2016,07,10,08,14,13.60
2016,07,10,08,15,13.70
2016,07,10,08,16,13.70
2016,07,10,08,17,13.70
2016,07,10,08,18,13.70
2016,07,10,08,19,13.80
2016,07,10,08,20,13.80
2016,07,10,08,21,13.80
2016,07,10,08,22,13.90
2016,07,10,08,23,13.90
2016,07,10,08,24,14.00
2016,07,10,08,25,14.00
2016,07,10,08,26,14.00
2016,07,10,08,27,14.00
2016,07,10,08,28,14.10
2016,07,10,08,29,14.10
2016,07,10,08,30,14.10
2016,07,10,08,31,14.10
2016,07,10,08,32,14.10
2016,07,10,08,33,14.10
2016,07,10,08,34,14.20
2016,07,10,08,35,14.20
2016,07,10,08,36,14.20
2016,07,10,08,37,14.20
2016,07,10,08,38,14.20
2016,07,10,08,39,14.30
2016,07,10,08,40,14.30
2016,07,10,08,41,14.40
2016,07,10,08,42,14.40
2016,07,10,08,43,14.50
2016,07,10,08,44,14.50
2016,07,10,08,45,14.50
2016,07,10,08,46,14.50
2016,07,10,08,47,14.50
2016,07,10,08,48,14.50
2016,07,10,08,49,14.60
2016,07,10,08,50,14.60
2016,07,10,08,51,14.60
2016,07,10,08,52,14.60
2016,07,10,08,53,14.60
2016,07,10,08,54,14.60
2016,07,10,08,55,14.60
2016,07,10,08,56,14.50
2016,07,10,08,57,14.50
2016,07,10,08,58,14.50
2016,07,10,08,59,14.50
2016,07,10,09,00,14.40
2016,07,10,09,01,14.40
2016,07,10,09,02,14.40
2016,07,10,09,03,14.30
2016,07,10,09,04,14.40
2016,07,10,09,05,14.40
2016,07,10,09,06,14.40
2016,07,10,09,07,14.40
2016,07,10,09,08,14.40
2016,07,10,09,09,14.40
2016,07,10,09,10,14.50
2016,07,10,09,11,14.50
2016,07,10,09,12,14.60
2016,07,10,09,13,14.60
2016,07,10,09,14,14.70
2016,07,10,09,15,14.80
2016,07,10,09,16,14.80
2016,07,10,09,17,14.80
2016,07,10,09,18,14.80
2016,07,10,09,19,14.80
2016,07,10,09,20,14.90
2016,07,10,09,21,14.90
2016,07,10,09,22,15.00
2016,07,10,09,23,15.10
2016,07,10,09,24,15.10
2016,07,10,09,25,15.20
2016,07,10,09,26,15.20
2016,07,10,09,27,15.30
2016,07,10,09,28,15.40
2016,07,10,09,29,15.50
2016,07,10,09,30,15.50
2016,07,10,09,31,15.50
2016,07,10,09,32,15.60
2016,07,10,09,33,15.60
2016,07,10,09,34,15.70
2016,07,10,09,35,15.70
2016,07,10,09,36,15.70
2016,07,10,09,37,15.80
2016,07,10,09,38,15.80
2016,07,10,09,39,15.80
2016,07,10,09,40,15.90
2016,07,10,09,41,16.00
2016,07,10,09,42,16.10
2016,07,10,09,43,16.10
2016,07,10,09,44,16.10
2016,07,10,09,45,16.20
2016,07,10,09,46,16.20
2016,07,10,09,47,16.30
2016,07,10,09,48,16.30
2016,07,10,09,49,16.30
2016,07,10,09,50,16.40
2016,07,10,09,51,16.40
2016,07,10,09,52,16.40
2016,07,10,09,53,16.40
2016,07,10,09,54,16.40
2016,07,10,09,55,16.30
2016,07,10,09,56,16.40
2016,07,10,09,57,16.40
2016,07,10,09,58,16.40
2016,07,10,09,59,16.40
2016,07,10,10,00,16.40
2016,07,10,10,01,16.40
2016,07,10,10,02,16.40
2016,07,10,10,03,16.40
2016,07,10,10,04,16.40
2016,07,10,10,05,16.40
2016,07,10,10,06,16.40
2016,07,10,10,07,16.40
2016,07,10,10,08,16.50
2016,07,10,10,09,16.40
2016,07,10,10,10,16.40
2016,07,10,10,11,16.40
2016,07,10,10,12,16.40
2016,07,10,10,13,16.40
2016,07,10,10,14,16.50
2016,07,10,10,15,16.60
2016,07,10,10,16,16.70
2016,07,10,10,17,16.70
2016,07,10,10,18,16.70
2016,07,10,10,19,16.80
2016,07,10,10,20,16.80
2016,07,10,10,21,16.80
2016,07,10,10,22,16.70
2016,07,10,10,23,16.70
2016,07,10,10,24,16.70
2016,07,10,10,25,16.70
2016,07,10,10,26,16.70
2016,07,10,10,27,16.70
2016,07,10,10,28,16.80
2016,07,10,10,29,16.80
2016,07,10,10,30,16.80
2016,07,10,10,31,16.90
2016,07,10,10,32,16.90
2016,07,10,10,33,16.90
2016,07,10,10,34,17.00
2016,07,10,10,35,16.90
2016,07,10,10,36,17.00
2016,07,10,10,37,17.00
2016,07,10,10,38,17.00
2016,07,10,10,39,16.90
2016,07,10,10,40,17.00
2016,07,10,10,41,17.00
2016,07,10,10,42,17.00
2016,07,10,10,43,17.10
2016,07,10,10,44,17.10
2016,07,10,10,45,17.20
2016,07,10,10,46,17.20
2016,07,10,10,47,17.20
2016,07,10,10,48,17.30
2016,07,10,10,49,17.40
2016,07,10,10,50,17.60
2016,07,10,10,51,17.80
2016,07,10,10,52,17.90
2016,07,10,10,53,18.00
2016,07,10,10,54,18.10
2016,07,10,10,55,18.30
2016,07,10,10,56,18.40
2016,07,10,10,57,18.60
2016,07,10,10,58,18.60
2016,07,10,10,59,18.60
2016,07,10,11,00,18.70
2016,07,10,11,01,18.80
2016,07,10,11,02,18.90
2016,07,10,11,03,18.90
2016,07,10,11,04,18.90
2016,07,10,11,05,18.90
2016,07,10,11,06,18.90
2016,07,10,11,07,18.90
2016,07,10,11,08,18.80
2016,07,10,11,09,18.70
2016,07,10,11,10,18.60
2016,07,10,11,11,18.40
2016,07,10,11,12,18.30
2016,07,10,11,13,18.20
2016,07,10,11,14,18.20
2016,07,10,11,15,18.20
2016,07,10,11,16,18.20
2016,07,10,11,17,18.20
2016,07,10,11,18,18.20
2016,07,10,11,19,18.20
2016,07,10,11,20,18.20
2016,07,10,11,21,18.20
2016,07,10,11,22,18.10
2016,07,10,11,23,18.10
2016,07,10,11,24,18.10
2016,07,10,11,25,18.10
2016,07,10,11,26,18.00
2016,07,10,11,27,17.90
2016,07,10,11,28,17.90
2016,07,10,11,29,17.90
2016,07,10,11,30,17.90
2016,07,10,11,31,17.90
2016,07,10,11,32,17.90
2016,07,10,11,33,17.90
2016,07,10,11,34,17.80
2016,07,10,11,35,17.70
2016,07,10,11,36,17.60
2016,07,10,11,37,17.60
2016,07,10,11,38,17.60
2016,07,10,11,39,17.60
2016,07,10,11,40,17.60
2016,07,10,11,41,17.70
2016,07,10,11,42,17.70
2016,07,10,11,43,17.70
2016,07,10,11,44,17.70
2016,07,10,11,45,17.70
2016,07,10,11,46,17.60
2016,07,10,11,47,17.60
2016,07,10,11,48,17.60
2016,07,10,11,49,17.60
2016,07,10,11,50,17.60
2016,07,10,11,51,17.60
2016,07,10,11,52,17.60
2016,07,10,11,53,17.60
2016,07,10,11,54,17.50
2016,07,10,11,55,17.50
2016,07,10,11,56,17.50
2016,07,10,11,57,17.60
2016,07,10,11,58,17.60
2016,07,10,11,59,17.70
2016,07,10,12,00,17.70
2016,07,10,12,01,17.80
2016,07,10,12,02,17.80
2016,07,10,12,03,17.90
2016,07,10,12,04,17.90
2016,07,10,12,05,18.00
2016,07,10,12,06,18.10
2016,07,10,12,07,18.10
2016,07,10,12,08,18.20
2016,07,10,12,09,18.20
2016,07,10,12,10,18.20
2016,07,10,12,11,18.30
2016,07,10,12,12,18.40
2016,07,10,12,13,18.50
2016,07,10,12,14,18.40
2016,07,10,12,15,18.40
2016,07,10,12,16,18.30
2016,07,10,12,17,18.30
2016,07,10,12,18,18.20
2016,07,10,12,19,18.10
2016,07,10,12,20,18.10
2016,07,10,12,21,18.10
2016,07,10,12,22,18.10
2016,07,10,12,23,18.10
2016,07,10,12,24,18.10
2016,07,10,12,25,18.20
2016,07,10,12,26,18.20
2016,07,10,12,27,18.20
2016,07,10,12,28,18.20
2016,07,10,12,29,18.10
2016,07,10,12,30,18.10
2016,07,10,12,31,18.10
2016,07,10,12,32,18.10
2016,07,10,12,33,18.10
2016,07,10,12,34,18.20
2016,07,10,12,35,18.20
2016,07,10,12,36,18.20
2016,07,10,12,37,18.20
2016,07,10,12,38,18.20
2016,07,10,12,39,18.40
2016,07,10,12,40,18.60
2016,07,10,12,41,18.80
2016,07,10,12,42,19.00
2016,07,10,12,43,19.10
2016,07,10,12,44,19.20
2016,07,10,12,45,19.10
2016,07,10,12,46,19.10
2016,07,10,12,47,19.10
2016,07,10,12,48,19.10
2016,07,10,12,49,19.10
2016,07,10,12,50,19.10
2016,07,10,12,51,19.10
2016,07,10,12,52,19.10
2016,07,10,12,53,19.10
2016,07,10,12,54,19.10
2016,07,10,12,55,19.10
2016,07,10,12,56,19.10
2016,07,10,12,57,19.10
2016,07,10,12,58,19.00
2016,07,10,12,59,18.90
2016,07,10,13,00,18.70
2016,07,10,13,01,18.60
2016,07,10,13,02,18.50
2016,07,10,13,03,18.40
2016,07,10,13,04,18.30
2016,07,10,13,05,18.20
2016,07,10,13,06,18.20
2016,07,10,13,07,18.10
2016,07,10,13,08,18.10
2016,07,10,13,09,18.10
2016,07,10,13,10,18.10
2016,07,10,13,11,18.00
2016,07,10,13,12,17.90
2016,07,10,13,13,17.90
2016,07,10,13,14,17.90
2016,07,10,13,15,17.90
2016,07,10,13,16,17.80
2016,07,10,13,17,17.80
2016,07,10,13,18,17.80
2016,07,10,13,19,17.80
2016,07,10,13,20,17.80
2016,07,10,13,21,17.80
2016,07,10,13,22,17.80
2016,07,10,13,23,17.90
2016,07,10,13,24,17.90
2016,07,10,13,25,18.00
2016,07,10,13,26,18.20
2016,07,10,13,27,18.40
2016,07,10,13,28,18.50
2016,07,10,13,29,18.70
2016,07,10,13,30,18.80
2016,07,10,13,31,18.80
2016,07,10,13,32,18.80
2016,07,10,13,33,18.80
2016,07,10,13,34,18.80
2016,07,10,13,35,18.80
2016,07,10,13,36,18.90
2016,07,10,13,37,18.90
2016,07,10,13,38,18.90
2016,07,10,13,39,18.90
2016,07,10,13,40,18.90
2016,07,10,13,41,18.90
2016,07,10,13,42,18.80
2016,07,10,13,43,18.80
2016,07,10,13,44,18.70
2016,07,10,13,45,18.70
2016,07,10,13,46,18.60
2016,07,10,13,47,18.60
2016,07,10,13,48,18.50
2016,07,10,13,49,18.40
2016,07,10,13,50,18.40
2016,07,10,13,51,18.40
2016,07,10,13,52,18.40
2016,07,10,13,53,18.50
2016,07,10,13,54,18.60
2016,07,10,13,55,18.70
2016,07,10,13,56,18.80
2016,07,10,13,57,18.90
2016,07,10,13,58,19.00
2016,07,10,13,59,19.10
2016,07,10,14,00,19.20
2016,07,10,14,01,19.30
2016,07,10,14,02,19.30
2016,07,10,14,03,19.40
2016,07,10,14,04,19.50
2016,07,10,14,05,19.60
2016,07,10,14,06,19.60
2016,07,10,14,07,19.50
2016,07,10,14,08,19.40
2016,07,10,14,09,19.30
2016,07,10,14,10,19.30
2016,07,10,14,11,19.30
2016,07,10,14,12,19.20
2016,07,10,14,13,19.10
2016,07,10,14,14,19.00
2016,07,10,14,15,18.90
2016,07,10,14,16,18.80
2016,07,10,14,17,18.80
2016,07,10,14,18,18.80
2016,07,10,14,19,18.70
2016,07,10,14,20,18.70
2016,07,10,14,21,18.70
2016,07,10,14,22,18.70
2016,07,10,14,23,18.60
2016,07,10,14,24,18.60
2016,07,10,14,25,18.60
2016,07,10,14,26,18.60
2016,07,10,14,27,18.60
2016,07,10,14,28,18.70
2016,07,10,14,29,18.60
2016,07,10,14,30,18.60
2016,07,10,14,31,18.60
2016,07,10,14,32,18.60
2016,07,10,14,33,18.60
2016,07,10,14,34,18.70
2016,07,10,14,35,18.70
2016,07,10,14,36,18.70
2016,07,10,14,37,18.60
2016,07,10,14,38,18.60
2016,07,10,14,39,18.50
2016,07,10,14,40,18.40
2016,07,10,14,41,18.40
2016,07,10,14,42,18.50
2016,07,10,14,43,18.60
2016,07,10,14,44,18.60
2016,07,10,14,45,18.70
2016,07,10,14,46,18.80
2016,07,10,14,47,18.90
2016,07,10,14,48,19.00
2016,07,10,14,49,19.10
2016,07,10,14,50,19.10
2016,07,10,14,51,19.30
2016,07,10,14,52,19.40
2016,07,10,14,53,19.40
2016,07,10,14,54,19.50
2016,07,10,14,55,19.60
2016,07,10,14,56,19.70
2016,07,10,14,57,19.70
2016,07,10,14,58,19.70
2016,07,10,14,59,19.60
2016,07,10,15,00,19.50
2016,07,10,15,01,19.50
2016,07,10,15,02,19.40
2016,07,10,15,03,19.60
2016,07,10,15,04,19.60
2016,07,10,15,05,19.60
2016,07,10,15,06,19.50
2016,07,10,15,07,19.40
2016,07,10,15,08,19.30
2016,07,10,15,09,19.20
2016,07,10,15,10,19.10
2016,07,10,15,11,19.10
2016,07,10,15,12,19.40
2016,07,10,15,13,19.50
2016,07,10,15,14,19.50
2016,07,10,15,15,19.50
2016,07,10,15,16,19.50
2016,07,10,15,17,19.50
2016,07,10,15,18,19.40
2016,07,10,15,19,19.30
2016,07,10,15,20,19.20
2016,07,10,15,21,19.10
2016,07,10,15,22,19.10
2016,07,10,15,23,19.10
2016,07,10,15,24,19.10
2016,07,10,15,25,19.00
2016,07,10,15,26,19.00
2016,07,10,15,27,19.00
2016,07,10,15,28,18.90
2016,07,10,15,29,18.80
2016,07,10,15,30,18.70
2016,07,10,15,31,18.70
2016,07,10,15,32,18.70
2016,07,10,15,33,18.70
2016,07,10,15,34,18.70
2016,07,10,15,35,18.70
2016,07,10,15,36,18.70
2016,07,10,15,37,18.70
2016,07,10,15,38,18.50
2016,07,10,15,39,18.10
2016,07,10,15,40,17.90
2016,07,10,15,41,17.80
2016,07,10,15,42,17.60
2016,07,10,15,43,17.50
2016,07,10,15,44,17.50
2016,07,10,15,45,17.40
2016,07,10,15,46,17.40
2016,07,10,15,47,17.50
2016,07,10,15,48,17.50
2016,07,10,15,49,17.50
2016,07,10,15,50,17.50
2016,07,10,15,51,17.40
2016,07,10,15,52,17.40
2016,07,10,15,53,17.30
2016,07,10,15,54,17.20
2016,07,10,15,55,17.10
2016,07,10,15,56,16.90
2016,07,10,15,57,16.80
2016,07,10,15,58,16.60
2016,07,10,15,59,16.50
2016,07,10,16,00,16.40
2016,07,10,16,01,16.30
2016,07,10,16,02,16.30
2016,07,10,16,03,16.40
2016,07,10,16,04,16.40
2016,07,10,16,05,16.50
2016,07,10,16,06,16.60
2016,07,10,16,07,16.70
2016,07,10,16,08,16.70
2016,07,10,16,09,16.70
2016,07,10,16,10,16.80
2016,07,10,16,11,16.80
2016,07,10,16,12,16.90
2016,07,10,16,13,16.90
2016,07,10,16,14,17.00
2016,07,10,16,15,17.20
2016,07,10,16,16,17.30
2016,07,10,16,17,17.30
2016,07,10,16,18,17.40
2016,07,10,16,19,17.50
2016,07,10,16,20,17.50
2016,07,10,16,21,17.50
2016,07,10,16,22,17.60
2016,07,10,16,23,17.70
2016,07,10,16,24,17.70
2016,07,10,16,25,17.60
2016,07,10,16,26,17.60
2016,07,10,16,27,17.60
2016,07,10,16,28,17.60
2016,07,10,16,29,17.60
2016,07,10,16,30,17.60
2016,07,10,16,31,17.60
2016,07,10,16,32,17.60
2016,07,10,16,33,17.60
2016,07,10,16,34,17.60
2016,07,10,16,35,17.60
2016,07,10,16,36,17.60
2016,07,10,16,37,17.70
2016,07,10,16,38,17.70
2016,07,10,16,39,17.80
2016,07,10,16,40,17.80
2016,07,10,16,41,17.90
2016,07,10,16,42,18.00
2016,07,10,16,43,18.10
2016,07,10,16,44,18.20
2016,07,10,16,45,18.20
2016,07,10,16,46,18.40
2016,07,10,16,47,18.40
2016,07,10,16,48,18.50
2016,07,10,16,49,18.60
2016,07,10,16,50,18.60
2016,07,10,16,51,18.70
2016,07,10,16,52,18.70
2016,07,10,16,53,18.80
2016,07,10,16,54,18.80
2016,07,10,16,55,18.80
2016,07,10,16,56,18.80
2016,07,10,16,57,18.70
2016,07,10,16,58,18.70
2016,07,10,16,59,18.60
2016,07,10,17,00,18.60
2016,07,10,17,01,18.50
2016,07,10,17,02,18.40
2016,07,10,17,03,18.30
2016,07,10,17,04,18.20
2016,07,10,17,05,18.20
2016,07,10,17,06,18.20
2016,07,10,17,07,18.20
2016,07,10,17,08,18.10
2016,07,10,17,09,18.00
2016,07,10,17,10,17.90
2016,07,10,17,11,17.80
2016,07,10,17,12,17.70
2016,07,10,17,13,17.50
2016,07,10,17,14,17.50
2016,07,10,17,15,17.40
2016,07,10,17,16,17.40
2016,07,10,17,17,17.40
2016,07,10,17,18,17.40
2016,07,10,17,19,17.40